Date,TemperatureHighF,TemperatureAvgF,TemperatureLowF,DewpointHighF,DewpointAvgF,DewpointLowF,HumidityHigh,HumidityAvg,HumidityLow,PressureMaxIn,PressureMinIn,WindSpeedMaxMPH,WindSpeedAvgMPH,GustSpeedMaxMPH,PrecipitationSumIn
2013-3-1,40.3,33.9,28.1,33.3,28.3,24.5,100,81,60,29.73,29.58,5,-668,10,0.00
2013-3-2,37.8,33.7,30.0,28.0,25.4,22.7,81,72,62,29.73,29.67,0,-999,0,0.00
2013-3-3,35.6,30.6,26.4,26.9,24.0,20.6,86,76,66,29.70,29.63,6,-785,8,0.04
2013-3-4,36.3,30.8,25.4,24.9,20.7,17.3,76,66,54,29.84,29.66,5,-654,14,0.00
2013-3-5,42.3,33.1,25.1,28.9,24.4,20.3,87,71,52,30.10,29.84,11,-714,11,0.00
2013-3-6,37.3,34.0,29.4,32.5,29.1,25.5,93,82,69,30.17,30.07,14,-471,20,0.03
2013-3-7,35.8,32.4,31.0,31.6,27.7,23.9,96,83,65,30.15,30.07,8,3,14,0.05
2013-3-8,37.9,31.6,26.6,32.1,28.1,25.6,97,87,65,30.25,30.03,6,2,11,0.13
2013-3-9,52.3,32.9,19.5,29.2,21.6,13.1,97,70,21,30.37,30.23,5,1,9,0.10
2013-3-10,48.2,32.9,17.5,30.4,24.7,15.6,95,74,44,30.43,30.27,3,1,6,0.02
2013-3-11,46.1,38.7,32.7,38.0,32.7,29.6,90,79,61,30.32,30.12,5,1,6,0.00
2013-3-12,48.3,43.3,38.8,48.3,42.5,36.9,100,97,85,30.12,29.69,4,1,9,0.71
2013-3-13,44.6,36.1,26.4,38.8,29.1,19.3,100,79,39,29.83,29.75,4,1,7,0.00
2013-3-14,30.3,25.0,19.4,25.8,12.7,4.2,92,61,43,29.89,29.76,5,1,9,0.00
2013-3-15,37.6,26.8,14.0,29.5,14.9,2.0,93,64,26,29.91,29.65,4,2,10,0.00
2013-3-16,30.0,27.9,25.3,26.9,25.4,23.3,92,90,86,29.77,29.74,2,0,5,0.00
2013-3-24,41.5,35.6,25.8,26.2,23.1,21.8,85,62,47,29.83,29.77,6,2,13,0.08
2013-3-25,42.6,32.9,21.4,29.4,24.4,19.4,94,73,51,29.81,29.55,6,2,11,0.00
2013-3-26,44.9,34.9,25.0,31.3,25.5,19.5,92,71,37,29.84,29.60,5,1,11,0.00
2013-3-27,49.5,33.4,18.6,29.9,23.5,16.7,94,72,33,29.93,29.80,7,1,14,0.00
2013-3-28,48.8,37.9,30.6,34.8,30.7,27.5,98,77,45,30.07,29.93,4,1,10,0.01
2013-3-29,53.6,38.8,27.6,34.2,29.9,26.3,96,74,38,30.10,30.01,5,1,7,0.00
2013-3-30,52.3,37.6,26.3,31.2,23.2,14.7,96,64,24,30.14,30.03,5,1,10,0.00
2013-3-31,54.5,37.5,20.5,38.9,26.0,18.3,98,69,29,30.15,29.77,6,1,13,0.15